sat.trackr.live / text

‹ back to catalog

LIDE

NORAD 64869 · 2025-154A

PAYLOAD ACTIVE UNKNOWN

§ Identity

Operator
Country
IT
Launch date
2025-07-23
Launch site
AFWTR
Launch vehicle
Mass (kg)
RCS (m²)

External: N2YO · Heavens-Above · Gunter

§ Orbital elements

Epoch: 2026-09-21T17:33:04.696704Z

Period
96.33 min
Inclination
97.6630°
Eccentricity
0.0003574
Mean motion
14.94868342 rev/d
Perigee alt
580.3 km
Apogee alt
585.3 km
Semi-major
6,960.9 km
B*
2.1946e-4
RAAN
326.3629°
Arg perigee
266.0771°
Mean anomaly
94.0041°
Rev number
6,342

§ Raw data

LIDE1 64869U 25154A   26264.73130436  .00002335  00000+0  21946-3 0  99942 64869  97.6630 326.3629 0003574 266.0771  94.0041 14.94868342 63427

JSON: /api/v1/satellites/64869 · /tle

For live sub-satellite position, see the globe view (requires WebGL).

§ Visibility from observer

Set your observer location to see the next 7 days of passes ≥ 10°. The values pass through the URL so the page stays shareable.

No JS? Fill the form by hand. The geolocation button needs JavaScript.

§ Radio — SatNOGS DB

ModeDescriptionDownlinkUplink
FM S-band telemetry 2.235 GHz

1 transmitter · refreshed weekly from db.satnogs.org